Regional Weather Roundup
Issued by NWS

Home | Current Version | Previous Version | Graphics & Text | Print | Product List | Glossary On
Versions: 1 2 3 4 5 6 7 8 9 10 11 12 13 14 15 16 17 18 19 20 21 22 23 24 25 26 27 28 29 30 31 32 33 34 35 36 37 38 39 40 41 42 43 44 45 46 47 48 49 50
000
ASUS43 KLMK 211602
RWRKY
KENTUCKY REGIONAL WEATHER ROUNDUP
NATIONAL WEATHER SERVICE LOUISVILLE KY
1100 AM EST SUN JAN 21 2018

NOTE "FAIR" INDICATES FEW OR NO CLOUDS BELOW 12,000 FEET
WITH NO SIGNIFICANT WEATHER AND/OR OBSTRUCTIONS TO VISIBILITY.

KYZ001>023-026-027-061>063-070>075-211700-
WESTERN AND SOUTH CENTRAL KENTUCKY

CITY           SKY/WX    TMP DP  RH WIND       PRES   REMARKS
PADUCAH        CLOUDY    54  48  80 VRB6      30.08S
HENDERSON      CLOUDY    48  45  89 S10       30.09S
OWENSBORO      CLOUDY    46  41  82 S10       30.11F
HOPKINSVILLE   CLOUDY    55  47  72 S12       30.13F
BOWLING GREEN  CLOUDY    57  46  66 SW14      30.16S
GLASGOW        NOT AVBL
$$

KYZ024-025-028>034-038-045-046-053-211700-
NORTH CENTRAL KENTUCKY

CITY           SKY/WX    TMP DP  RH WIND       PRES   REMARKS
LOUISVILLE/SDF CLOUDY    56  45  66 S9        30.13S
LOUISVILLE/LOU CLOUDY    53  45  74 S7        30.14S
FORT KNOX      CLOUDY    53  45  75 S12       30.13S
$$

KYZ035>037-039>044-047>052-055>060-089>105-211700-
NORTHEAST KENTUCKY

CITY           SKY/WX    TMP DP  RH WIND       PRES   REMARKS
LEXINGTON      CLOUDY    54  43  66 S9        30.16F
COVINGTON      CLOUDY    52  44  74 S10       30.11S
FRANKFORT      CLOUDY    55  44  66 SW7       30.14S
$$

KYZ054-064>069-076>088-106>120-211700-
SOUTHEAST KENTUCKY

CITY           SKY/WX    TMP DP  RH WIND       PRES   REMARKS
JACKSON        RAIN      49  44  83 SW5       30.21R
LONDON         CLOUDY    50  43  77 SE5       30.22S
SOMERSET       NOT AVBL
MIDDLESBORO    CLOUDY    50  37  60 CALM      30.27S
MONTICELLO     CLOUDY    57  44  62 SW12G21   30.23R
$$





USA.gov is the U.S. government's official web portal to all federal, state and local government web resources and services.